Year,Month,Day,Hour,Minute,Value (Times are PST for temperature in C)
2016,08,24,00,00,17.70
2016,08,24,00,01,17.60
2016,08,24,00,02,17.40
2016,08,24,00,03,17.30
2016,08,24,00,04,17.20
2016,08,24,00,05,17.20
2016,08,24,00,06,17.20
2016,08,24,00,07,17.20
2016,08,24,00,08,17.20
2016,08,24,00,09,17.30
2016,08,24,00,10,17.30
2016,08,24,00,11,17.40
2016,08,24,00,12,17.40
2016,08,24,00,13,17.40
2016,08,24,00,14,17.40
2016,08,24,00,15,17.40
2016,08,24,00,16,17.30
2016,08,24,00,17,17.20
2016,08,24,00,18,17.10
2016,08,24,00,19,17.00
2016,08,24,00,20,16.90
2016,08,24,00,21,16.80
2016,08,24,00,22,16.70
2016,08,24,00,23,16.70
2016,08,24,00,24,16.70
2016,08,24,00,25,16.60
2016,08,24,00,26,16.60
2016,08,24,00,27,16.50
2016,08,24,00,28,16.40
2016,08,24,00,29,16.30
2016,08,24,00,30,16.30
2016,08,24,00,31,16.30
2016,08,24,00,32,16.20
2016,08,24,00,33,16.20
2016,08,24,00,34,16.10
2016,08,24,00,35,16.00
2016,08,24,00,36,15.90
2016,08,24,00,37,15.90
2016,08,24,00,38,15.80
2016,08,24,00,39,15.70
2016,08,24,00,40,15.60
2016,08,24,00,41,15.60
2016,08,24,00,42,15.50
2016,08,24,00,43,15.40
2016,08,24,00,44,15.40
2016,08,24,00,45,15.30
2016,08,24,00,46,15.20
2016,08,24,00,47,15.20
2016,08,24,00,48,15.10
2016,08,24,00,49,15.00
2016,08,24,00,50,15.00
2016,08,24,00,51,14.90
2016,08,24,00,52,14.90
2016,08,24,00,53,14.90
2016,08,24,00,54,14.90
2016,08,24,00,55,14.90
2016,08,24,00,56,14.90
2016,08,24,00,57,14.90
2016,08,24,00,58,14.90
2016,08,24,00,59,14.90
2016,08,24,01,00,14.80
2016,08,24,01,01,14.80
2016,08,24,01,02,14.80
2016,08,24,01,03,14.70
2016,08,24,01,04,14.70
2016,08,24,01,05,14.70
2016,08,24,01,06,14.70
2016,08,24,01,07,14.60
2016,08,24,01,08,14.60
2016,08,24,01,09,14.60
2016,08,24,01,10,14.50
2016,08,24,01,11,14.50
2016,08,24,01,12,14.50
2016,08,24,01,13,14.50
2016,08,24,01,14,14.40
2016,08,24,01,15,14.40
2016,08,24,01,16,14.40
2016,08,24,01,17,14.40
2016,08,24,01,18,14.40
2016,08,24,01,19,14.40
2016,08,24,01,20,14.40
2016,08,24,01,21,14.30
2016,08,24,01,22,14.40
2016,08,24,01,23,14.40
2016,08,24,01,24,14.40
2016,08,24,01,25,14.30
2016,08,24,01,26,14.30
2016,08,24,01,27,14.30
2016,08,24,01,28,14.30
2016,08,24,01,29,14.30
2016,08,24,01,30,14.30
2016,08,24,01,31,14.30
2016,08,24,01,32,14.20
2016,08,24,01,33,14.20
2016,08,24,01,34,14.20
2016,08,24,01,35,14.20
2016,08,24,01,36,14.20
2016,08,24,01,37,14.30
2016,08,24,01,38,14.30
2016,08,24,01,39,14.30
2016,08,24,01,40,14.30
2016,08,24,01,41,14.30
2016,08,24,01,42,14.40
2016,08,24,01,43,14.40
2016,08,24,01,44,14.50
2016,08,24,01,45,14.50
2016,08,24,01,46,14.50
2016,08,24,01,47,14.60
2016,08,24,01,48,14.60
2016,08,24,01,49,14.60
2016,08,24,01,50,14.60
2016,08,24,01,51,14.70
2016,08,24,01,52,14.70
2016,08,24,01,53,14.80
2016,08,24,01,54,14.80
2016,08,24,01,55,14.80
2016,08,24,01,56,14.80
2016,08,24,01,57,14.80
2016,08,24,01,58,14.90
2016,08,24,01,59,14.90
2016,08,24,02,00,15.00
2016,08,24,02,01,15.10
2016,08,24,02,02,15.10
2016,08,24,02,03,15.20
2016,08,24,02,04,15.20
2016,08,24,02,05,15.20
2016,08,24,02,06,15.20
2016,08,24,02,07,15.10
2016,08,24,02,08,15.10
2016,08,24,02,09,15.00
2016,08,24,02,10,15.00
2016,08,24,02,11,14.90
2016,08,24,02,12,14.80
2016,08,24,02,13,14.70
2016,08,24,02,14,14.60
2016,08,24,02,15,14.50
2016,08,24,02,16,14.50
2016,08,24,02,17,14.40
2016,08,24,02,18,14.40
2016,08,24,02,19,14.30
2016,08,24,02,20,14.20
2016,08,24,02,21,14.20
2016,08,24,02,22,14.20
2016,08,24,02,23,14.30
2016,08,24,02,24,14.30
2016,08,24,02,25,14.30
2016,08,24,02,26,14.30
2016,08,24,02,27,14.30
2016,08,24,02,28,14.20
2016,08,24,02,29,14.20
2016,08,24,02,30,14.20
2016,08,24,02,31,14.20
2016,08,24,02,32,14.10
2016,08,24,02,33,14.10
2016,08,24,02,34,14.00
2016,08,24,02,35,13.90
2016,08,24,02,36,13.90
2016,08,24,02,37,13.80
2016,08,24,02,38,13.80
2016,08,24,02,39,13.80
2016,08,24,02,40,13.90
2016,08,24,02,41,13.90
2016,08,24,02,42,13.90
2016,08,24,02,43,14.00
2016,08,24,02,44,14.00
2016,08,24,02,45,14.10
2016,08,24,02,46,14.10
2016,08,24,02,47,14.10
2016,08,24,02,48,14.10
2016,08,24,02,49,14.00
2016,08,24,02,50,14.00
2016,08,24,02,51,14.00
2016,08,24,02,52,14.00
2016,08,24,02,53,14.00
2016,08,24,02,54,14.00
2016,08,24,02,55,14.00
2016,08,24,02,56,14.00
2016,08,24,02,57,14.10
2016,08,24,02,58,14.10
2016,08,24,02,59,14.20
2016,08,24,03,00,14.20
2016,08,24,03,01,14.30
2016,08,24,03,02,14.40
2016,08,24,03,03,14.60
2016,08,24,03,04,14.70
2016,08,24,03,05,14.80
2016,08,24,03,06,14.80
2016,08,24,03,07,14.90
2016,08,24,03,08,14.80
2016,08,24,03,09,14.80
2016,08,24,03,10,14.80
2016,08,24,03,11,14.80
2016,08,24,03,12,14.70
2016,08,24,03,13,14.60
2016,08,24,03,14,14.60
2016,08,24,03,15,14.60
2016,08,24,03,16,14.60
2016,08,24,03,17,14.70
2016,08,24,03,18,14.70
2016,08,24,03,19,14.70
2016,08,24,03,20,14.70
2016,08,24,03,21,14.60
2016,08,24,03,22,14.60
2016,08,24,03,23,14.60
2016,08,24,03,24,14.60
2016,08,24,03,25,14.60
2016,08,24,03,26,14.70
2016,08,24,03,27,14.80
2016,08,24,03,28,14.80
2016,08,24,03,29,14.90
2016,08,24,03,30,14.90
2016,08,24,03,31,14.90
2016,08,24,03,32,14.90
2016,08,24,03,33,15.00
2016,08,24,03,34,15.00
2016,08,24,03,35,15.10
2016,08,24,03,36,15.10
2016,08,24,03,37,15.20
2016,08,24,03,38,15.20
2016,08,24,03,39,15.20
2016,08,24,03,40,15.20
2016,08,24,03,41,15.30
2016,08,24,03,42,15.30
2016,08,24,03,43,15.30
2016,08,24,03,44,15.30
2016,08,24,03,45,15.30
2016,08,24,03,46,15.20
2016,08,24,03,47,15.20
2016,08,24,03,48,15.20
2016,08,24,03,49,15.20
2016,08,24,03,50,15.10
2016,08,24,03,51,15.00
2016,08,24,03,52,15.00
2016,08,24,03,53,14.90
2016,08,24,03,54,15.00
2016,08,24,03,55,14.90
2016,08,24,03,56,15.00
2016,08,24,03,57,15.10
2016,08,24,03,58,15.00
2016,08,24,03,59,15.10
2016,08,24,04,00,15.10
2016,08,24,04,01,15.10
2016,08,24,04,02,15.10
2016,08,24,04,03,15.20
2016,08,24,04,04,15.20
2016,08,24,04,05,15.20
2016,08,24,04,06,15.10
2016,08,24,04,07,15.10
2016,08,24,04,08,15.00
2016,08,24,04,09,14.90
2016,08,24,04,10,14.80
2016,08,24,04,11,14.70
2016,08,24,04,12,14.70
2016,08,24,04,13,14.70
2016,08,24,04,14,14.60
2016,08,24,04,15,14.50
2016,08,24,04,16,14.50
2016,08,24,04,17,14.50
2016,08,24,04,18,14.50
2016,08,24,04,19,14.40
2016,08,24,04,20,14.40
2016,08,24,04,21,14.40
2016,08,24,04,22,14.40
2016,08,24,04,23,14.40
2016,08,24,04,24,14.40
2016,08,24,04,25,14.50
2016,08,24,04,26,14.60
2016,08,24,04,27,14.60
2016,08,24,04,28,14.70
2016,08,24,04,29,14.80
2016,08,24,04,30,14.70
2016,08,24,04,31,14.60
2016,08,24,04,32,14.70
2016,08,24,04,33,14.70
2016,08,24,04,34,14.70
2016,08,24,04,35,14.60
2016,08,24,04,36,14.50
2016,08,24,04,37,14.50
2016,08,24,04,38,14.40
2016,08,24,04,39,14.40
2016,08,24,04,40,14.50
2016,08,24,04,41,14.60
2016,08,24,04,42,14.70
2016,08,24,04,43,14.80
2016,08,24,04,44,14.80
2016,08,24,04,45,14.80
2016,08,24,04,46,14.80
2016,08,24,04,47,14.80
2016,08,24,04,48,14.90
2016,08,24,04,49,15.00
2016,08,24,04,50,15.00
2016,08,24,04,51,15.10
2016,08,24,04,52,15.20
2016,08,24,04,53,15.20
2016,08,24,04,54,15.20
2016,08,24,04,55,15.30
2016,08,24,04,56,15.30
2016,08,24,04,57,15.40
2016,08,24,04,58,15.40
2016,08,24,04,59,15.30
2016,08,24,05,00,15.30
2016,08,24,05,01,15.20
2016,08,24,05,02,15.20
2016,08,24,05,03,15.20
2016,08,24,05,04,15.10
2016,08,24,05,05,15.10
2016,08,24,05,06,15.10
2016,08,24,05,07,15.10
2016,08,24,05,08,15.10
2016,08,24,05,09,15.10
2016,08,24,05,10,15.20
2016,08,24,05,11,15.20
2016,08,24,05,12,15.20
2016,08,24,05,13,15.20
2016,08,24,05,14,15.20
2016,08,24,05,15,15.20
2016,08,24,05,16,15.10
2016,08,24,05,17,15.10
2016,08,24,05,18,15.10
2016,08,24,05,19,15.10
2016,08,24,05,20,15.20
2016,08,24,05,21,15.20
2016,08,24,05,22,15.30
2016,08,24,05,23,15.40
2016,08,24,05,24,15.40
2016,08,24,05,25,15.40
2016,08,24,05,26,15.40
2016,08,24,05,27,15.40
2016,08,24,05,28,15.40
2016,08,24,05,29,15.40
2016,08,24,05,30,15.50
2016,08,24,05,31,15.50
2016,08,24,05,32,15.50
2016,08,24,05,33,15.50
2016,08,24,05,34,15.50
2016,08,24,05,35,15.50
2016,08,24,05,36,15.50
2016,08,24,05,37,15.50
2016,08,24,05,38,15.50
2016,08,24,05,39,15.50
2016,08,24,05,40,15.40
2016,08,24,05,41,15.40
2016,08,24,05,42,15.30
2016,08,24,05,43,15.30
2016,08,24,05,44,15.30
2016,08,24,05,45,15.30
2016,08,24,05,46,15.30
2016,08,24,05,47,15.30
2016,08,24,05,48,15.30
2016,08,24,05,49,15.30
2016,08,24,05,50,15.30
2016,08,24,05,51,15.30
2016,08,24,05,52,15.20
2016,08,24,05,53,15.20
2016,08,24,05,54,15.10
2016,08,24,05,55,15.10
2016,08,24,05,56,15.00
2016,08,24,05,57,15.00
2016,08,24,05,58,14.90
2016,08,24,05,59,14.80
2016,08,24,06,00,14.80
2016,08,24,06,01,14.80
2016,08,24,06,02,14.80
2016,08,24,06,03,14.80
2016,08,24,06,04,14.80
2016,08,24,06,05,14.80
2016,08,24,06,06,14.70
2016,08,24,06,07,14.70
2016,08,24,06,08,14.70
2016,08,24,06,09,14.70
2016,08,24,06,10,14.70
2016,08,24,06,11,14.70
2016,08,24,06,12,14.70
2016,08,24,06,13,14.70
2016,08,24,06,14,14.70
2016,08,24,06,15,14.80
2016,08,24,06,16,14.80
2016,08,24,06,17,14.90
2016,08,24,06,18,14.90
2016,08,24,06,19,14.90
2016,08,24,06,20,14.90
2016,08,24,06,21,14.90
2016,08,24,06,22,14.90
2016,08,24,06,23,14.90
2016,08,24,06,24,14.90
2016,08,24,06,25,14.90
2016,08,24,06,26,14.90
2016,08,24,06,27,14.90
2016,08,24,06,28,14.90
2016,08,24,06,29,14.90
2016,08,24,06,30,14.90
2016,08,24,06,31,14.90
2016,08,24,06,32,14.90
2016,08,24,06,33,14.90
2016,08,24,06,34,14.80
2016,08,24,06,35,14.90
2016,08,24,06,36,14.90
2016,08,24,06,37,14.90
2016,08,24,06,38,14.90
2016,08,24,06,39,14.90
2016,08,24,06,40,14.90
2016,08,24,06,41,14.90
2016,08,24,06,42,14.90
2016,08,24,06,43,14.90
2016,08,24,06,44,14.90
2016,08,24,06,45,14.90
2016,08,24,06,46,14.90
2016,08,24,06,47,14.90
2016,08,24,06,48,14.90
2016,08,24,06,49,14.90
2016,08,24,06,50,14.90
2016,08,24,06,51,14.90
2016,08,24,06,52,14.90
2016,08,24,06,53,15.00
2016,08,24,06,54,15.10
2016,08,24,06,55,15.20
2016,08,24,06,56,15.20
2016,08,24,06,57,15.30
2016,08,24,06,58,15.30
2016,08,24,06,59,15.30
2016,08,24,07,00,15.30
2016,08,24,07,01,15.30
2016,08,24,07,02,15.30
2016,08,24,07,03,15.30
2016,08,24,07,04,15.30
2016,08,24,07,05,15.30
2016,08,24,07,06,15.40
2016,08,24,07,07,15.40
2016,08,24,07,08,15.40
2016,08,24,07,09,15.30
2016,08,24,07,10,15.30
2016,08,24,07,11,15.30
2016,08,24,07,12,15.30
2016,08,24,07,13,15.40
2016,08,24,07,14,15.40
2016,08,24,07,15,15.40
2016,08,24,07,16,15.50
2016,08,24,07,17,15.60
2016,08,24,07,18,15.60
2016,08,24,07,19,15.60
2016,08,24,07,20,15.70
2016,08,24,07,21,15.60
2016,08,24,07,22,15.70
2016,08,24,07,23,15.70
2016,08,24,07,24,15.70
2016,08,24,07,25,15.70
2016,08,24,07,26,15.70
2016,08,24,07,27,15.70
2016,08,24,07,28,15.80
2016,08,24,07,29,15.80
2016,08,24,07,30,15.80
2016,08,24,07,31,15.90
2016,08,24,07,32,15.90
2016,08,24,07,33,16.00
2016,08,24,07,34,16.00
2016,08,24,07,35,16.10
2016,08,24,07,36,16.20
2016,08,24,07,37,16.30
2016,08,24,07,38,16.40
2016,08,24,07,39,16.50
2016,08,24,07,40,16.60
2016,08,24,07,41,16.70
2016,08,24,07,42,16.70
2016,08,24,07,43,16.80
2016,08,24,07,44,16.80
2016,08,24,07,45,16.80
2016,08,24,07,46,16.90
2016,08,24,07,47,17.00
2016,08,24,07,48,17.00
2016,08,24,07,49,17.10
2016,08,24,07,50,17.20
2016,08,24,07,51,17.20
2016,08,24,07,52,17.30
2016,08,24,07,53,17.30
2016,08,24,07,54,17.40
2016,08,24,07,55,17.40
2016,08,24,07,56,17.50
2016,08,24,07,57,17.60
2016,08,24,07,58,17.60
2016,08,24,07,59,17.70
2016,08,24,08,00,17.70
2016,08,24,08,01,17.80
2016,08,24,08,02,17.90
2016,08,24,08,03,17.90
2016,08,24,08,04,18.00
2016,08,24,08,05,18.00
2016,08,24,08,06,18.10
2016,08,24,08,07,18.10
2016,08,24,08,08,18.20
2016,08,24,08,09,18.20
2016,08,24,08,10,18.30
2016,08,24,08,11,18.30
2016,08,24,08,12,18.30
2016,08,24,08,13,18.30
2016,08,24,08,14,18.40
2016,08,24,08,15,18.40
2016,08,24,08,16,18.40
2016,08,24,08,17,18.50
2016,08,24,08,18,18.50
2016,08,24,08,19,18.50
2016,08,24,08,20,18.60
2016,08,24,08,21,18.60
2016,08,24,08,22,18.60
2016,08,24,08,23,18.60
2016,08,24,08,24,18.60
2016,08,24,08,25,18.60
2016,08,24,08,26,18.60
2016,08,24,08,27,18.60
2016,08,24,08,28,18.60
2016,08,24,08,29,18.60
2016,08,24,08,30,18.70
2016,08,24,08,31,18.70
2016,08,24,08,32,18.70
2016,08,24,08,33,18.70
2016,08,24,08,34,18.70
2016,08,24,08,35,18.70
2016,08,24,08,36,18.80
2016,08,24,08,37,18.80
2016,08,24,08,38,18.80
2016,08,24,08,39,18.90
2016,08,24,08,40,18.90
2016,08,24,08,41,18.90
2016,08,24,08,42,18.90
2016,08,24,08,43,18.90
2016,08,24,08,44,18.90
2016,08,24,08,45,18.90
2016,08,24,08,46,19.00
2016,08,24,08,47,19.00
2016,08,24,08,48,19.00
2016,08,24,08,49,19.00
2016,08,24,08,50,19.00
2016,08,24,08,51,19.00
2016,08,24,08,52,19.00
2016,08,24,08,53,19.00
2016,08,24,08,54,19.10
2016,08,24,08,55,19.10
2016,08,24,08,56,19.10
2016,08,24,08,57,19.10
2016,08,24,08,58,19.10
2016,08,24,08,59,19.10
2016,08,24,09,00,19.10
2016,08,24,09,01,19.10
2016,08,24,09,02,19.10
2016,08,24,09,03,19.10
2016,08,24,09,04,19.10
2016,08,24,09,05,19.10
2016,08,24,09,06,19.10
2016,08,24,09,07,19.10
2016,08,24,09,08,19.10
2016,08,24,09,09,19.10
2016,08,24,09,10,19.10
2016,08,24,09,11,19.20
2016,08,24,09,12,19.20
2016,08,24,09,13,19.20
2016,08,24,09,14,19.20
2016,08,24,09,15,19.20
2016,08,24,09,16,19.20
2016,08,24,09,17,19.30
2016,08,24,09,18,19.30
2016,08,24,09,19,19.30
2016,08,24,09,20,19.30
2016,08,24,09,21,19.20
2016,08,24,09,22,19.20
2016,08,24,09,23,19.20
2016,08,24,09,24,19.20
2016,08,24,09,25,19.30
2016,08,24,09,26,19.30
2016,08,24,09,27,19.30
2016,08,24,09,28,19.30
2016,08,24,09,29,19.30
2016,08,24,09,30,19.30
2016,08,24,09,31,19.40
2016,08,24,09,32,19.40
2016,08,24,09,33,19.40
2016,08,24,09,34,19.40
2016,08,24,09,35,19.40
2016,08,24,09,36,19.40
2016,08,24,09,37,19.40
2016,08,24,09,38,19.50
2016,08,24,09,39,19.50
2016,08,24,09,40,19.50
2016,08,24,09,41,19.60
2016,08,24,09,42,19.60
2016,08,24,09,43,19.70
2016,08,24,09,44,19.70
2016,08,24,09,45,19.70
2016,08,24,09,46,19.70
2016,08,24,09,47,19.70
2016,08,24,09,48,19.70
2016,08,24,09,49,19.70
2016,08,24,09,50,19.80
2016,08,24,09,51,19.80
2016,08,24,09,52,19.80
2016,08,24,09,53,19.80
2016,08,24,09,54,19.90
2016,08,24,09,55,19.90
2016,08,24,09,56,20.00
2016,08,24,09,57,20.10
2016,08,24,09,58,20.10
2016,08,24,09,59,20.10
2016,08,24,10,00,20.10
2016,08,24,10,01,20.10
2016,08,24,10,02,20.20
2016,08,24,10,03,20.20
2016,08,24,10,04,20.20
2016,08,24,10,05,20.20
2016,08,24,10,06,20.10
2016,08,24,10,07,20.00
2016,08,24,10,08,20.00
2016,08,24,10,09,19.90
2016,08,24,10,10,19.90
2016,08,24,10,11,19.80
2016,08,24,10,12,19.90
2016,08,24,10,13,19.90
2016,08,24,10,14,20.00
2016,08,24,10,15,20.10
2016,08,24,10,16,20.10
2016,08,24,10,17,20.10
2016,08,24,10,18,20.20
2016,08,24,10,19,20.20
2016,08,24,10,20,20.20
2016,08,24,10,21,20.20
2016,08,24,10,22,20.20
2016,08,24,10,23,20.20
2016,08,24,10,24,20.20
2016,08,24,10,25,20.20
2016,08,24,10,26,20.20
2016,08,24,10,27,20.20
2016,08,24,10,28,20.10
2016,08,24,10,29,20.10
2016,08,24,10,30,20.10
2016,08,24,10,31,20.20
2016,08,24,10,32,20.30
2016,08,24,10,33,20.30
2016,08,24,10,34,20.30
2016,08,24,10,35,20.40
2016,08,24,10,36,20.40
2016,08,24,10,37,20.40
2016,08,24,10,38,20.50
2016,08,24,10,39,20.50
2016,08,24,10,40,20.50
2016,08,24,10,41,20.60
2016,08,24,10,42,20.60
2016,08,24,10,43,20.60
2016,08,24,10,44,20.60
2016,08,24,10,45,20.60
2016,08,24,10,46,20.70
2016,08,24,10,47,20.80
2016,08,24,10,48,20.80
2016,08,24,10,49,20.80
2016,08,24,10,50,20.80
2016,08,24,10,51,20.80
2016,08,24,10,52,20.70
2016,08,24,10,53,20.70
2016,08,24,10,54,20.60
2016,08,24,10,55,20.60
2016,08,24,10,56,20.50
2016,08,24,10,57,20.50
2016,08,24,10,58,20.50
2016,08,24,10,59,20.60
2016,08,24,11,00,20.60
2016,08,24,11,01,20.70
2016,08,24,11,02,20.70
2016,08,24,11,03,20.70
2016,08,24,11,04,20.60
2016,08,24,11,05,20.60
2016,08,24,11,06,20.50
2016,08,24,11,07,20.50
2016,08,24,11,08,20.60
2016,08,24,11,09,20.60
2016,08,24,11,10,20.60
2016,08,24,11,11,20.70
2016,08,24,11,12,20.70
2016,08,24,11,13,20.70
2016,08,24,11,14,20.70
2016,08,24,11,15,20.80
2016,08,24,11,16,20.80
2016,08,24,11,17,20.80
2016,08,24,11,18,20.80
2016,08,24,11,19,20.70
2016,08,24,11,20,20.70
2016,08,24,11,21,20.60
2016,08,24,11,22,20.60
2016,08,24,11,23,20.60
2016,08,24,11,24,20.50
2016,08,24,11,25,20.50
2016,08,24,11,26,20.50
2016,08,24,11,27,20.50
2016,08,24,11,28,20.50
2016,08,24,11,29,20.60
2016,08,24,11,30,20.60
2016,08,24,11,31,20.60
2016,08,24,11,32,20.70
2016,08,24,11,33,20.70
2016,08,24,11,34,20.70
2016,08,24,11,35,20.80
2016,08,24,11,36,20.70
2016,08,24,11,37,20.70
2016,08,24,11,38,20.70
2016,08,24,11,39,20.80
2016,08,24,11,40,20.90
2016,08,24,11,41,20.90
2016,08,24,11,42,20.80
2016,08,24,11,43,20.80
2016,08,24,11,44,20.80
2016,08,24,11,45,20.90
2016,08,24,11,46,20.90
2016,08,24,11,47,21.00
2016,08,24,11,48,21.00
2016,08,24,11,49,20.90
2016,08,24,11,50,21.00
2016,08,24,11,51,21.00
2016,08,24,11,52,21.10
2016,08,24,11,53,21.10
2016,08,24,11,54,21.20
2016,08,24,11,55,21.20
2016,08,24,11,56,21.20
2016,08,24,11,57,21.00
2016,08,24,11,58,21.00
2016,08,24,11,59,20.90
2016,08,24,12,00,20.90
2016,08,24,12,01,20.90
2016,08,24,12,02,20.90
2016,08,24,12,03,21.00
2016,08,24,12,04,21.00
2016,08,24,12,05,21.10
2016,08,24,12,06,21.20
2016,08,24,12,07,21.30
2016,08,24,12,08,21.40
2016,08,24,12,09,21.40
2016,08,24,12,10,21.40
2016,08,24,12,11,21.40
2016,08,24,12,12,21.40
2016,08,24,12,13,21.40
2016,08,24,12,14,21.50
2016,08,24,12,15,21.50
2016,08,24,12,16,21.60
2016,08,24,12,17,21.70
2016,08,24,12,18,21.70
2016,08,24,12,19,21.70
2016,08,24,12,20,21.70
2016,08,24,12,21,21.80
2016,08,24,12,22,21.80
2016,08,24,12,23,21.90
2016,08,24,12,24,22.00
2016,08,24,12,25,22.00
2016,08,24,12,26,22.00
2016,08,24,12,27,22.00
2016,08,24,12,28,22.00
2016,08,24,12,29,22.10
2016,08,24,12,30,22.10
2016,08,24,12,31,22.10
2016,08,24,12,32,22.10
2016,08,24,12,33,22.10
2016,08,24,12,34,22.10
2016,08,24,12,35,22.20
2016,08,24,12,36,22.20
2016,08,24,12,37,22.30
2016,08,24,12,38,22.30
2016,08,24,12,39,22.40
2016,08,24,12,40,22.40
2016,08,24,12,41,22.50
2016,08,24,12,42,22.50
2016,08,24,12,43,22.50
2016,08,24,12,44,22.50
2016,08,24,12,45,22.60
2016,08,24,12,46,22.60
2016,08,24,12,47,22.70
2016,08,24,12,48,22.70
2016,08,24,12,49,22.70
2016,08,24,12,50,22.70
2016,08,24,12,51,22.70
2016,08,24,12,52,22.60
2016,08,24,12,53,22.60
2016,08,24,12,54,22.60
2016,08,24,12,55,22.50
2016,08,24,12,56,22.50
2016,08,24,12,57,22.40
2016,08,24,12,58,22.40
2016,08,24,12,59,22.30
2016,08,24,13,00,22.20
2016,08,24,13,01,22.20
2016,08,24,13,02,22.10
2016,08,24,13,03,22.10
2016,08,24,13,04,22.10
2016,08,24,13,05,22.10
2016,08,24,13,06,22.10
2016,08,24,13,07,22.10
2016,08,24,13,08,22.20
2016,08,24,13,09,22.20
2016,08,24,13,10,22.10
2016,08,24,13,11,22.10
2016,08,24,13,12,22.10
2016,08,24,13,13,22.20
2016,08,24,13,14,22.20
2016,08,24,13,15,22.30
2016,08,24,13,16,22.30
2016,08,24,13,17,22.40
2016,08,24,13,18,22.50
2016,08,24,13,19,22.60
2016,08,24,13,20,22.60
2016,08,24,13,21,22.60
2016,08,24,13,22,22.50
2016,08,24,13,23,22.50
2016,08,24,13,24,22.60
2016,08,24,13,25,22.60
2016,08,24,13,26,22.70
2016,08,24,13,27,22.70
2016,08,24,13,28,22.80
2016,08,24,13,29,22.80
2016,08,24,13,30,22.80
2016,08,24,13,31,22.90
2016,08,24,13,32,22.90
2016,08,24,13,33,23.00
2016,08,24,13,34,23.10
2016,08,24,13,35,23.10
2016,08,24,13,36,23.10
2016,08,24,13,37,23.20
2016,08,24,13,38,23.20
2016,08,24,13,39,23.20
2016,08,24,13,40,23.10
2016,08,24,13,41,23.10
2016,08,24,13,42,23.10
2016,08,24,13,43,23.10
2016,08,24,13,44,23.10
2016,08,24,13,45,23.10
2016,08,24,13,46,23.20
2016,08,24,13,47,23.20
2016,08,24,13,48,23.30
2016,08,24,13,49,23.40
2016,08,24,13,50,23.50
2016,08,24,13,51,23.50
2016,08,24,13,52,23.60
2016,08,24,13,53,23.60
2016,08,24,13,54,23.70
2016,08,24,13,55,23.80
2016,08,24,13,56,23.90
2016,08,24,13,57,24.00
2016,08,24,13,58,24.00
2016,08,24,13,59,24.00
2016,08,24,14,00,23.90
2016,08,24,14,01,23.90
2016,08,24,14,02,23.90
2016,08,24,14,03,23.90
2016,08,24,14,04,23.90
2016,08,24,14,05,23.90
2016,08,24,14,06,23.90
2016,08,24,14,07,23.90
2016,08,24,14,08,24.00
2016,08,24,14,09,24.10
2016,08,24,14,10,24.10
2016,08,24,14,11,24.10
2016,08,24,14,12,24.10
2016,08,24,14,13,24.10
2016,08,24,14,14,24.20
2016,08,24,14,15,24.20
2016,08,24,14,16,24.20
2016,08,24,14,17,24.20
2016,08,24,14,18,24.20
2016,08,24,14,19,24.20
2016,08,24,14,20,24.30
2016,08,24,14,21,24.40
2016,08,24,14,22,24.50
2016,08,24,14,23,24.50
2016,08,24,14,24,24.50
2016,08,24,14,25,24.60
2016,08,24,14,26,24.60
2016,08,24,14,27,24.60
2016,08,24,14,28,24.60
2016,08,24,14,29,24.50
2016,08,24,14,30,24.40
2016,08,24,14,31,24.30
2016,08,24,14,32,24.30
2016,08,24,14,33,24.30
2016,08,24,14,34,24.40
2016,08,24,14,35,24.50
2016,08,24,14,36,24.50
2016,08,24,14,37,24.50
2016,08,24,14,38,24.50
2016,08,24,14,39,24.50
2016,08,24,14,40,24.50
2016,08,24,14,41,24.40
2016,08,24,14,42,24.40
2016,08,24,14,43,24.40
2016,08,24,14,44,24.50
2016,08,24,14,45,24.50
2016,08,24,14,46,24.60
2016,08,24,14,47,24.60
2016,08,24,14,48,24.60
2016,08,24,14,49,24.60
2016,08,24,14,50,24.60
2016,08,24,14,51,24.60
2016,08,24,14,52,24.60
2016,08,24,14,53,24.60
2016,08,24,14,54,24.70
2016,08,24,14,55,24.70
2016,08,24,14,56,24.70
2016,08,24,14,57,24.80
2016,08,24,14,58,24.80
2016,08,24,14,59,24.90
2016,08,24,15,00,24.90
2016,08,24,15,01,24.90
2016,08,24,15,02,24.90
2016,08,24,15,03,24.90
2016,08,24,15,04,24.90
2016,08,24,15,05,24.80
2016,08,24,15,06,24.80
2016,08,24,15,07,24.80
2016,08,24,15,08,24.80
2016,08,24,15,09,24.90
2016,08,24,15,10,25.00
2016,08,24,15,11,25.10
2016,08,24,15,12,25.10
2016,08,24,15,13,25.20
2016,08,24,15,14,25.20
2016,08,24,15,15,25.10
2016,08,24,15,16,25.10
2016,08,24,15,17,25.00
2016,08,24,15,18,25.00
2016,08,24,15,19,25.00
2016,08,24,15,20,25.00
2016,08,24,15,21,25.10
2016,08,24,15,22,25.10
2016,08,24,15,23,25.20
2016,08,24,15,24,25.20
2016,08,24,15,25,25.20
2016,08,24,15,26,25.20
2016,08,24,15,27,25.30
2016,08,24,15,28,25.30
2016,08,24,15,29,25.40
2016,08,24,15,30,25.30
2016,08,24,15,31,25.40
2016,08,24,15,32,25.40
2016,08,24,15,33,25.40
2016,08,24,15,34,25.50
2016,08,24,15,35,25.50
2016,08,24,15,36,25.60
2016,08,24,15,37,25.60
2016,08,24,15,38,25.50
2016,08,24,15,39,25.50
2016,08,24,15,40,25.50
2016,08,24,15,41,25.50
2016,08,24,15,42,25.50
2016,08,24,15,43,25.60
2016,08,24,15,44,25.60
2016,08,24,15,45,25.70
2016,08,24,15,46,25.70
2016,08,24,15,47,25.70
2016,08,24,15,48,25.80
2016,08,24,15,49,25.80
2016,08,24,15,50,25.90
2016,08,24,15,51,26.00
2016,08,24,15,52,26.00
2016,08,24,15,53,26.00
2016,08,24,15,54,26.10
2016,08,24,15,55,26.10
2016,08,24,15,56,26.10
2016,08,24,15,57,26.20
2016,08,24,15,58,26.20
2016,08,24,15,59,26.30
2016,08,24,16,00,26.30
2016,08,24,16,01,26.30
2016,08,24,16,02,26.30
2016,08,24,16,03,26.30
2016,08,24,16,04,26.30
2016,08,24,16,05,26.30
2016,08,24,16,06,26.30
2016,08,24,16,07,26.40
2016,08,24,16,08,26.40
2016,08,24,16,09,26.40
2016,08,24,16,10,26.40
2016,08,24,16,11,26.40
2016,08,24,16,12,26.30
2016,08,24,16,13,26.30
2016,08,24,16,14,26.30
2016,08,24,16,15,26.40
2016,08,24,16,16,26.40
2016,08,24,16,17,26.40
2016,08,24,16,18,26.40
2016,08,24,16,19,26.50
2016,08,24,16,20,26.50
2016,08,24,16,21,26.50
2016,08,24,16,22,26.50
2016,08,24,16,23,26.50
2016,08,24,16,24,26.50
2016,08,24,16,25,26.50
2016,08,24,16,26,26.50
2016,08,24,16,27,26.50
2016,08,24,16,28,26.50
2016,08,24,16,29,26.70
2016,08,24,16,30,26.70
2016,08,24,16,31,26.70
2016,08,24,16,32,26.70
2016,08,24,16,33,26.60
2016,08,24,16,34,26.60
2016,08,24,16,35,26.70
2016,08,24,16,36,26.70
2016,08,24,16,37,26.70
2016,08,24,16,38,26.70
2016,08,24,16,39,26.70
2016,08,24,16,40,26.70
2016,08,24,16,41,26.70
2016,08,24,16,42,26.70
2016,08,24,16,43,26.70
2016,08,24,16,44,26.70
2016,08,24,16,45,26.60
2016,08,24,16,46,26.70
2016,08,24,16,47,26.70
2016,08,24,16,48,26.80
2016,08,24,16,49,26.80
2016,08,24,16,50,26.80
2016,08,24,16,51,26.80
2016,08,24,16,52,26.80
2016,08,24,16,53,26.90
2016,08,24,16,54,26.90
2016,08,24,16,55,26.90
2016,08,24,16,56,27.00
2016,08,24,16,57,27.00
2016,08,24,16,58,27.00
2016,08,24,16,59,27.10
2016,08,24,17,00,27.10
2016,08,24,17,01,27.10
2016,08,24,17,02,27.10
2016,08,24,17,03,27.10
2016,08,24,17,04,27.20
2016,08,24,17,05,27.20
2016,08,24,17,06,27.20
2016,08,24,17,07,27.10
2016,08,24,17,08,27.10
2016,08,24,17,09,27.10
2016,08,24,17,10,27.10
2016,08,24,17,11,27.10
2016,08,24,17,12,27.20
2016,08,24,17,13,27.20
2016,08,24,17,14,27.30
2016,08,24,17,15,27.40
2016,08,24,17,16,27.40
2016,08,24,17,17,27.50
2016,08,24,17,18,27.60
2016,08,24,17,19,27.70